Location: Cambridge (historical)
(38.6883°N, 119.0140°W)
Time: 17:27:27
(UTC+00:00)

Cosmos 2082 Rocket - Pass Details

Date: 29 October 2020
Orbit: 833 x 854 km, 71.0° (Epoch: 23 November)

Event Time Altitude Azimuth Distance (km) Brightness Sun altitude
Exits shadow 13:51:49 - 266° (W) 2,791 4.3 -6.2°
Reaches altitude 10° 13:53:25 10° 278° (W) 2,442 3.9 -5.9°
Maximum altitude 13:56:20 14° 310° (NW) 2,159 3.8 -5.4°
Drops below altitude 10° 13:59:16 10° 342° (NNW) 2,452 4.3 -4.8°
Sets 14:03:00 0° 7° (N) 3,393 5.3 -4.1°
